FW3834 Weather Reports


time (UTC)temp
C
wind
direction
speed
KPH
gust
KPH
rain 1hr
cm
rain 24hr
cm
rain mn
cm
humidity
%
barometer
mb
20260503230053 21 79 1.6 3.2 0.00 0.00 0.00 38 1012.0
20260503225032 21 81 0.0 3.2 0.00 0.00 0.00 39 1012.0
20260503224033 21 80 0.0 1.6 0.00 0.00 0.00 41 1012.1
20260503223033 21 80 1.6 3.2 0.00 0.00 0.00 42 1012.3
20260503222033 21 82 1.6 3.2 0.00 0.00 0.00 43 1012.4
20260503221032 21 83 1.6 3.2 0.00 0.00 0.00 43 1012.7
20260503220032 21 82 1.6 3.2 0.00 0.00 0.00 43 1012.7
20260503215040 21 85 1.6 3.2 0.00 0.00 0.00 42 1012.9
20260503214033 21 85 1.6 3.2 0.00 0.00 0.00 44 1013.0
20260503213020 21 80 1.6 3.2 0.00 0.00 0.00 42 1013.1
20260503212032 21 84 1.6 3.2 0.00 0.00 0.00 43 1013.2
20260503211128 22 81 1.6 3.2 0.00 0.00 0.00 42 1013.1
20260503210028 22 82 1.6 3.2 0.00 0.00 0.00 41 1013.2
20260503205052 22 81 1.6 3.2 0.00 0.00 0.00 42 1013.3
20260503204116 22 78 1.6 3.2 0.00 0.00 0.00 41 1013.3
20260503203033 21 81 1.6 3.2 0.00 0.00 0.00 42 1013.4
20260503202101 21 86 3.2 3.2 0.00 0.00 0.00 41 1013.3
20260503201021 21 83 1.6 4.8 0.00 0.00 0.00 43 1013.4
20260503200033 21 87 1.6 3.2 0.00 0.00 0.00 45 1013.6
20260503195109 21 83 1.6 3.2 0.00 0.00 0.00 46 1013.7
20260503194028 21 81 1.6 3.2 0.00 0.00 0.00 45 1013.8
20260503193052 21 84 1.6 3.2 0.00 0.00 0.00 46 1014.0
20260503192033 21 85 1.6 3.2 0.00 0.00 0.00 47 1014.1
20260503191052 20 80 1.6 3.2 0.00 0.00 0.00 47 1014.2
20260503190028 21 83 3.2 4.8 0.00 0.00 0.00 47 1014.2
20260503185113 20 81 1.6 3.2 0.00 0.00 0.00 48 1014.2
20260503184116 20 83 1.6 3.2 0.00 0.00 0.00 50 1014.2
20260503183037 20 80 1.6 3.2 0.00 0.00 0.00 49 1014.4
20260503182101 20 86 1.6 4.8 0.00 0.00 0.00 50 1014.5
20260503181020 19 77 1.6 1.6 0.00 0.00 0.00 51 1014.6
20260503180105 19 79 1.6 3.2 0.00 0.00 0.00 50 1014.7
20260503175108 18 82 1.6 3.2 0.00 0.00 0.00 52 1014.8
20260503174028 18 79 0.0 1.6 0.00 0.00 0.00 52 1014.9
20260503173113 18 81 1.6 3.2 0.00 0.00 0.00 54 1014.9
20260503172117 18 80 1.6 1.6 0.00 0.00 0.00 53 1015.1
20260503171037 18 82 1.6 3.2 0.00 0.00 0.00 53 1015.0
20260503160117 16 79 0.0 1.6 0.00 0.00 0.00 57 1015.3
20260503131021 11 0.0 0.0 0.00 0.00 0.00 79 1015.1
20260503130105 11 0.0 0.0 0.00 0.00 0.00 79 1015.1
20260503081053 11 65 1.6 1.6 0.00 0.00 0.00 81 1015.7
20260503072033 11 66 1.6 1.6 0.00 0.00 0.00 81 1015.6
20260503071033 11 66 0.0 1.6 0.00 0.00 0.00 80 1015.7
20260503055033 12 67 0.0 1.6 0.00 0.00 0.00 78 1015.6
20260503054033 12 67 0.0 1.6 0.00 0.00 0.00 80 1015.7
20260503053033 12 67 1.6 1.6 0.00 0.00 0.00 80 1015.8
20260503052033 12 67 1.6 1.6 0.00 0.00 0.00 81 1015.7
20260503051033 12 67 0.0 1.6 0.00 0.00 0.00 79 1015.6
20260503050053 12 67 0.0 1.6 0.00 0.00 0.00 81 1015.7
20260503045033 12 67 1.6 1.6 0.00 0.00 0.00 80 1015.7
20260503044033 12 67 1.6 3.2 0.00 0.00 0.00 79 1015.5
20260503043033 12 67 1.6 1.6 0.00 0.00 0.00 77 1015.5
20260503042033 12 68 0.0 1.6 0.00 0.00 0.00 76 1015.3
20260503041033 12 68 0.0 1.6 0.00 0.00 0.00 77 1015.3
20260503040033 13 69 1.6 1.6 0.00 0.00 0.00 77 1015.1
20260503035033 13 69 1.6 1.6 0.00 0.00 0.00 76 1015.0
20260503034033 13 69 0.0 1.6 0.00 0.00 0.00 76 1015.0
20260503033033 13 69 0.0 1.6 0.00 0.00 0.00 75 1014.8
20260503032033 14 70 0.0 1.6 0.00 0.00 0.00 74 1014.8
20260503031053 14 0.0 0.0 0.00 0.00 0.00 75 1014.8
20260503030033 14 0.0 0.0 0.00 0.00 0.00 71 1014.7
20260503025033 15 0.0 0.0 0.00 0.00 0.00 71 1014.6
20260503024033 15 0.0 0.0 0.00 0.00 0.00 69 1014.7
20260503023033 15 0.0 0.0 0.00 0.00 0.00 69 1014.8
20260503022053 15 0.0 0.0 0.00 0.00 0.00 69 1014.8
20260503021033 15 0.0 0.0 0.00 0.00 0.00 68 1014.6
20260503020033 15 0.0 0.0 0.00 0.00 0.00 67 1014.8
20260503015033 16 0.0 0.0 0.00 0.00 0.00 66 1014.8
20260503014033 16 0.0 0.0 0.00 0.00 0.00 65 1014.8
20260503013033 16 0.0 0.0 0.00 0.00 0.00 66 1014.9
20260503012033 16 70 0.0 1.6 0.00 0.00 0.00 64 1014.9
20260503011033 17 71 0.0 1.6 0.00 0.00 0.00 63 1015.0
20260503010033 17 0.0 0.0 0.00 0.00 0.00 56 1015.0
20260503005053 17 0.0 0.0 0.00 0.00 0.00 58 1015.0
20260503004033 17 0.0 0.0 0.00 0.00 0.00 60 1015.0
20260503003053 17 0.0 0.0 0.00 0.00 0.00 61 1015.1
20260503002033 18 85 1.6 3.2 0.00 0.00 0.00 58 1015.0
20260503001033 18 86 0.0 1.6 0.00 0.00 0.00 53 1015.1
20260503000033 18 89 1.6 1.6 0.00 0.00 0.00 57 1015.1
20260502235033 18 89 0.0 1.6 0.00 0.00 0.00 59 1015.1
20260502234033 18 89 0.0 3.2 0.00 0.00 0.00 58 1015.2
20260502233053 18 88 0.0 1.6 0.00 0.00 0.00 53 1015.3
20260502232033 18 88 0.0 3.2 0.00 0.00 0.00 53 1015.4
20260502231033 18 87 1.6 1.6 0.00 0.00 0.00 51 1015.6